,,,PA_Meas_PMT16A,,PR_Meas_QMR101_102,,RH_Meas_QMH101,,SR_Meas_QMS101,,TA_Meas_QMH101,,GenWind,,GenWind,
date,time,status,PA,status,PR,status,RH,status,SR,status,TA,status,DirAvg,status,SpdAvg,
2009-08-24, 00:00:04,VALID,1000.88,VALID,0,VALID,84.5286,VALID,0,VALID,24.2671,VALID,129,VALID,2.13281,
2009-08-24, 00:01:04,VALID,1000.89,VALID,0,VALID,84.376,VALID,0,VALID,24.3062,VALID,130,VALID,2.07031,
2009-08-24, 00:02:04,VALID,1000.87,VALID,0,VALID,84.2234,VALID,0,VALID,24.3062,VALID,134,VALID,2.53906,
2009-08-24, 00:03:04,VALID,1000.91,VALID,0,VALID,84.2234,VALID,0,VALID,24.3666,VALID,139,VALID,1.61016,
2009-08-24, 00:04:04,VALID,1000.88,VALID,0,VALID,84.0784,VALID,0,VALID,24.3452,VALID,131,VALID,2.33984,
2009-08-24, 00:05:04,VALID,1000.84,VALID,0,VALID,84.0174,VALID,0,VALID,24.3647,VALID,133,VALID,2.10352,
2009-08-24, 00:06:04,VALID,1000.85,VALID,0,VALID,84.0784,VALID,0,VALID,24.3861,VALID,144,VALID,1.66641,
2009-08-24, 00:07:04,VALID,1000.84,VALID,0,VALID,84.1242,VALID,0,VALID,24.3861,VALID,139,VALID,1.70156,
2009-08-24, 00:08:04,VALID,1000.78,VALID,0,VALID,84.2081,VALID,0,VALID,24.3452,VALID,124,VALID,1.92148,
2009-08-24, 00:09:04,VALID,1000.77,VALID,0,VALID,84.2234,VALID,0,VALID,24.347,VALID,132,VALID,1.69219,
2009-08-24, 00:10:04,VALID,1000.72,VALID,0,VALID,84.2539,VALID,0,VALID,24.3257,VALID,143,VALID,1.47187,
2009-08-24, 00:11:04,VALID,1000.71,VALID,0,VALID,84.3302,VALID,0,VALID,24.3062,VALID,142,VALID,1.78437,
2009-08-24, 00:12:04,VALID,1000.69,VALID,0,VALID,84.2692,VALID,0,VALID,24.3062,VALID,145,VALID,1.49727,
2009-08-24, 00:13:04,VALID,1000.69,VALID,0,VALID,84.1776,VALID,0,VALID,24.3275,VALID,138,VALID,1.43516,
2009-08-24, 00:14:04,VALID,1000.66,VALID,0,VALID,84.1852,VALID,0,VALID,24.2866,VALID,141,VALID,1.29883,
2009-08-24, 00:15:04,VALID,1000.64,VALID,0,VALID,84.1623,VALID,0,VALID,24.2866,VALID,145,VALID,1.51406,
2009-08-24, 00:16:04,VALID,1000.62,VALID,0,VALID,84.2386,VALID,0,VALID,24.308,VALID,137,VALID,1.64141,
2009-08-24, 00:17:04,VALID,1000.6,VALID,0,VALID,84.2157,VALID,0,VALID,24.308,VALID,140,VALID,2.08242,
2009-08-24, 00:18:04,VALID,1000.58,VALID,0,VALID,84.3455,VALID,0,VALID,24.2671,VALID,146,VALID,1.0875,
2009-08-24, 00:19:04,VALID,1000.56,VALID,0,VALID,84.376,VALID,0,VALID,24.2671,VALID,136,VALID,2.18789,
2009-08-24, 00:20:05,VALID,1000.54,VALID,0,VALID,84.3378,VALID,0,VALID,24.2885,VALID,132,VALID,2.33516,
2009-08-24, 00:21:05,VALID,1000.54,VALID,0,VALID,84.1395,VALID,0,VALID,24.3062,VALID,128,VALID,2.61406,
2009-08-24, 00:22:05,VALID,1000.53,VALID,0,VALID,84.2157,VALID,0,VALID,24.3062,VALID,137,VALID,2.02148,
2009-08-24, 00:23:05,VALID,1000.5,VALID,0,VALID,84.2157,VALID,0,VALID,24.3257,VALID,141,VALID,1.92266,
2009-08-24, 00:24:05,VALID,1000.52,VALID,0,VALID,83.9869,VALID,0,VALID,24.3452,VALID,142,VALID,2.36602,
2009-08-24, 00:25:05,VALID,1000.49,VALID,0,VALID,84.0403,VALID,0,VALID,24.3647,VALID,146,VALID,1.60664,
2009-08-24, 00:26:05,VALID,1000.49,VALID,0,VALID,83.8648,VALID,0,VALID,24.3647,VALID,143,VALID,2.56875,
2009-08-24, 00:27:05,VALID,1000.5,VALID,0,VALID,83.7046,VALID,0,VALID,24.3647,VALID,144,VALID,2.14063,
2009-08-24, 00:28:05,VALID,1000.52,VALID,0,VALID,83.6664,VALID,0,VALID,24.3842,VALID,136,VALID,1.75391,
2009-08-24, 00:29:05,VALID,1000.52,VALID,0,VALID,83.5977,VALID,0,VALID,24.4037,VALID,147,VALID,1.82695,
2009-08-24, 00:30:05,VALID,1000.53,VALID,0,VALID,83.4146,VALID,0,VALID,24.4251,VALID,144,VALID,2.52578,
2009-08-24, 00:31:05,VALID,1000.56,VALID,0,VALID,83.0408,VALID,0,VALID,24.4428,VALID,147,VALID,2.49766,
2009-08-24, 00:32:05,VALID,1000.58,VALID,0,VALID,83.2163,VALID,0,VALID,24.4818,VALID,159,VALID,1.3043,
2009-08-24, 00:33:05,VALID,1000.56,VALID,0,VALID,83.2315,VALID,0,VALID,24.4818,VALID,164,VALID,1.33281,
2009-08-24, 00:34:05,VALID,1000.55,VALID,0,VALID,83.3841,VALID,0,VALID,24.4623,VALID,159,VALID,1.31602,
2009-08-24, 00:35:05,VALID,1000.55,VALID,0,VALID,83.4299,VALID,0,VALID,24.4642,VALID,168,VALID,1.45547,
2009-08-24, 00:36:05,VALID,1000.56,VALID,0,VALID,83.3994,VALID,0,VALID,24.4037,VALID,159,VALID,1.95625,
2009-08-24, 00:37:05,VALID,1000.56,VALID,0,VALID,83.613,VALID,0,VALID,24.4037,VALID,163,VALID,1.52305,
2009-08-24, 00:38:05,VALID,1000.57,VALID,0,VALID,83.6817,VALID,0,VALID,24.4037,VALID,170,VALID,1.06562,
2009-08-24, 00:39:05,VALID,1000.56,VALID,0,VALID,83.8114,VALID,0,VALID,24.3842,VALID,170,VALID,1.29141,
2009-08-24, 00:40:05,VALID,1000.53,VALID,0,VALID,83.6969,VALID,0,VALID,24.3647,VALID,179,VALID,0.9125,
2009-08-24, 00:41:05,VALID,1000.54,VALID,0,VALID,83.7503,VALID,0,VALID,24.3666,VALID,175,VALID,1.42617,
2009-08-24, 00:42:05,VALID,1000.52,VALID,0,VALID,83.6359,VALID,0,VALID,24.3629,VALID,170,VALID,1.44023,
2009-08-24, 00:43:05,VALID,1000.55,VALID,0,VALID,83.7809,VALID,0,VALID,24.4019,VALID,159,VALID,0.885156,
2009-08-24, 00:44:05,VALID,1000.54,VALID,0,VALID,83.7961,VALID,0,VALID,24.4037,VALID,160,VALID,0.976172,
2009-08-24, 00:45:05,VALID,1000.56,VALID,0,VALID,83.8037,VALID,0,VALID,24.3842,VALID,149,VALID,0.892578,
2009-08-24, 00:46:05,VALID,1000.55,VALID,0,VALID,83.9106,VALID,0,VALID,24.3238,VALID,156,VALID,0.819141,
2009-08-24, 00:47:05,VALID,1000.56,VALID,0,VALID,84.2844,VALID,0,VALID,24.3238,VALID,172,VALID,1.41133,
2009-08-24, 00:48:05,VALID,1000.56,VALID,0,VALID,83.9869,VALID,0,VALID,24.3257,VALID,172,VALID,1.66094,
2009-08-24, 00:49:05,VALID,1000.54,VALID,0,VALID,83.552,VALID,0,VALID,24.3433,VALID,161,VALID,1.00469,
2009-08-24, 00:50:05,VALID,1000.56,VALID,0,VALID,83.407,VALID,0,VALID,24.3629,VALID,150,VALID,1.06211,
2009-08-24, 00:51:05,VALID,1000.57,VALID,0,VALID,83.3307,VALID,0,VALID,24.3824,VALID,157,VALID,0.982422,
2009-08-24, 00:52:05,VALID,1000.55,VALID,0,VALID,82.9721,VALID,0,VALID,24.4019,VALID,157,VALID,1.0168,
2009-08-24, 00:53:05,VALID,1000.54,VALID,0,VALID,83.0026,VALID,0,VALID,24.4623,VALID,150,VALID,1.14297,
2009-08-24, 00:54:05,VALID,1000.54,VALID,0,VALID,82.8043,VALID,0.112286,VALID,24.4604,VALID,152,VALID,1.36797,
2009-08-24, 00:55:05,VALID,1000.54,VALID,0,VALID,82.9569,VALID,0,VALID,24.48,VALID,168,VALID,0.799609,
2009-08-24, 00:56:05,VALID,1000.54,VALID,0,VALID,82.9721,VALID,0,VALID,24.5013,VALID,141,VALID,0.623047,
2009-08-24, 00:57:05,VALID,1000.54,VALID,0,VALID,82.9874,VALID,0,VALID,24.4604,VALID,160,VALID,1.10703,
2009-08-24, 00:58:05,VALID,1000.54,VALID,0,VALID,82.995,VALID,0,VALID,24.4818,VALID,151,VALID,1.01016,
2009-08-24, 00:59:05,VALID,1000.57,VALID,0,VALID,82.7966,VALID,0,VALID,24.4818,VALID,158,VALID,0.656641,
2009-08-24, 01:00:05,VALID,1000.54,VALID,0,VALID,82.7966,VALID,0,VALID,24.4995,VALID,154,VALID,1.09844,
2009-08-24, 01:01:05,VALID,1000.57,VALID,0,VALID,82.8577,VALID,0,VALID,24.5209,VALID,160,VALID,1.13008,
2009-08-24, 01:02:05,VALID,1000.56,VALID,0,VALID,82.9569,VALID,0,VALID,24.4995,VALID,170,VALID,1.19258,
2009-08-24, 01:03:05,VALID,1000.6,VALID,0,VALID,82.728,VALID,0,VALID,24.4995,VALID,144,VALID,1.25859,
2009-08-24, 01:04:05,VALID,1000.59,VALID,0,VALID,82.7127,VALID,0,VALID,24.519,VALID,146,VALID,0.700781,
2009-08-24, 01:05:05,VALID,1000.59,VALID,0,VALID,82.8653,VALID,0.112286,VALID,24.519,VALID,164,VALID,0.694531,
2009-08-24, 01:06:05,VALID,1000.58,VALID,0,VALID,82.9263,VALID,0.112286,VALID,24.519,VALID,160,VALID,0.805859,
2009-08-24, 01:07:05,VALID,1000.58,VALID,0,VALID,82.934,VALID,0.112286,VALID,24.4995,VALID,153,VALID,0.882031,
2009-08-24, 01:08:05,VALID,1000.62,VALID,0,VALID,82.934,VALID,0.112286,VALID,24.48,VALID,153,VALID,1.03359,
2009-08-24, 01:09:05,VALID,1000.62,VALID,0,VALID,83.0942,VALID,0,VALID,24.48,VALID,131,VALID,1.12461,
2009-08-24, 01:10:05,VALID,1000.64,VALID,0,VALID,82.9492,VALID,0,VALID,24.4604,VALID,142,VALID,1.32187,
2009-08-24, 01:11:05,VALID,1000.66,VALID,0,VALID,83.0103,VALID,0,VALID,24.5013,VALID,156,VALID,1.03711,
2009-08-24, 01:12:05,VALID,1000.66,VALID,0,VALID,83.0789,VALID,0,VALID,24.5032,VALID,160,VALID,1.08516,
2009-08-24, 01:13:05,VALID,1000.68,VALID,0,VALID,83.056,VALID,0,VALID,24.5032,VALID,165,VALID,0.977344,
2009-08-24, 01:14:05,VALID,1000.7,VALID,0,VALID,83.2697,VALID,0,VALID,24.4818,VALID,160,VALID,1.10664,
2009-08-24, 01:15:05,VALID,1000.67,VALID,0,VALID,83.1629,VALID,0,VALID,24.4818,VALID,153,VALID,0.917188,
2009-08-24, 01:16:05,VALID,1000.66,VALID,0,VALID,83.1323,VALID,0,VALID,24.4818,VALID,148,VALID,1.14258,
2009-08-24, 01:17:05,VALID,1000.65,VALID,0,VALID,83.1247,VALID,0,VALID,24.5032,VALID,147,VALID,1.37031,
2009-08-24, 01:18:05,VALID,1000.63,VALID,0,VALID,83.1781,VALID,0,VALID,24.5013,VALID,139,VALID,1.10859,
2009-08-24, 01:19:05,VALID,1000.62,VALID,0,VALID,83.14,VALID,0,VALID,24.5013,VALID,144,VALID,1.18672,
2009-08-24, 01:20:05,VALID,1000.6,VALID,0,VALID,83.2315,VALID,0,VALID,24.5013,VALID,150,VALID,0.910156,
2009-08-24, 01:21:05,VALID,1000.61,VALID,0,VALID,83.2315,VALID,0,VALID,24.4818,VALID,146,VALID,0.991406,
2009-08-24, 01:22:05,VALID,1000.57,VALID,0,VALID,83.1247,VALID,0,VALID,24.4818,VALID,150,VALID,0.994922,
2009-08-24, 01:23:05,VALID,1000.6,VALID,0,VALID,83.1476,VALID,0,VALID,24.5013,VALID,159,VALID,0.894531,
2009-08-24, 01:24:05,VALID,1000.57,VALID,0,VALID,82.9187,VALID,0,VALID,24.5209,VALID,149,VALID,1.03828,
2009-08-24, 01:25:05,VALID,1000.56,VALID,0,VALID,82.7585,VALID,0,VALID,24.5422,VALID,134,VALID,0.889063,
2009-08-24, 01:26:05,VALID,1000.54,VALID,0,VALID,82.4609,VALID,0,VALID,24.5599,VALID,131,VALID,1.1125,
2009-08-24, 01:27:05,VALID,1000.5,VALID,0,VALID,82.5754,VALID,0,VALID,24.5794,VALID,120,VALID,0.972656,
2009-08-24, 01:28:05,VALID,1000.49,VALID,0,VALID,82.7432,VALID,0,VALID,24.558,VALID,126,VALID,0.765234,
2009-08-24, 01:29:05,VALID,1000.5,VALID,0,VALID,82.7966,VALID,0.112286,VALID,24.5385,VALID,125,VALID,1.28008,
2009-08-24, 01:30:05,VALID,1000.48,VALID,0,VALID,82.8958,VALID,0,VALID,24.5404,VALID,133,VALID,0.663672,
2009-08-24, 01:31:05,VALID,1000.47,VALID,0,VALID,83.0255,VALID,0,VALID,24.4995,VALID,133,VALID,1.03594,
2009-08-24, 01:32:05,VALID,1000.48,VALID,0,VALID,83.0408,VALID,0,VALID,24.5013,VALID,151,VALID,1.12031,
2009-08-24, 01:33:05,VALID,1000.49,VALID,0,VALID,82.995,VALID,0,VALID,24.4995,VALID,140,VALID,1.06719,
2009-08-24, 01:34:05,VALID,1000.48,VALID,0,VALID,83.0332,VALID,0,VALID,24.4995,VALID,139,VALID,1.22344,
2009-08-24, 01:35:05,VALID,1000.49,VALID,0,VALID,83.1018,VALID,0,VALID,24.4995,VALID,155,VALID,1.22305,
2009-08-24, 01:36:05,VALID,1000.5,VALID,0,VALID,83.1552,VALID,0,VALID,24.519,VALID,148,VALID,1.03477,
2009-08-24, 01:37:05,VALID,1000.47,VALID,0,VALID,83.2086,VALID,0,VALID,24.519,VALID,157,VALID,0.825,
2009-08-24, 01:38:05,VALID,1000.45,VALID,0,VALID,83.1171,VALID,0,VALID,24.5404,VALID,153,VALID,0.98125,
2009-08-24, 01:39:05,VALID,1000.45,VALID,0,VALID,83.1934,VALID,0,VALID,24.5209,VALID,145,VALID,1.16641,
2009-08-24, 01:40:05,VALID,1000.46,VALID,0,VALID,83.2392,VALID,0,VALID,24.4995,VALID,140,VALID,1.35,
2009-08-24, 01:41:05,VALID,1000.44,VALID,0,VALID,83.0866,VALID,0,VALID,24.4995,VALID,134,VALID,1.47578,
2009-08-24, 01:42:05,VALID,1000.45,VALID,0,VALID,83.0789,VALID,0,VALID,24.5013,VALID,138,VALID,1.28711,
2009-08-24, 01:43:05,VALID,1000.44,VALID,0,VALID,83.0103,VALID,0,VALID,24.5013,VALID,140,VALID,1.09805,
2009-08-24, 01:44:05,VALID,1000.42,VALID,0,VALID,82.8424,VALID,0,VALID,24.5227,VALID,140,VALID,1.58438,
2009-08-24, 01:45:05,VALID,1000.42,VALID,0,VALID,82.789,VALID,0,VALID,24.5422,VALID,134,VALID,1.56445,
2009-08-24, 01:46:05,VALID,1000.4,VALID,0,VALID,82.8195,VALID,0,VALID,24.5422,VALID,129,VALID,1.31328,
2009-08-24, 01:47:05,VALID,1000.38,VALID,0,VALID,82.6288,VALID,0,VALID,24.5404,VALID,122,VALID,1.27031,
2009-08-24, 01:48:05,VALID,1000.35,VALID,0,VALID,82.6517,VALID,0,VALID,24.5599,VALID,122,VALID,1.12734,
2009-08-24, 01:49:05,VALID,1000.36,VALID,0,VALID,82.5067,VALID,0,VALID,24.5599,VALID,127,VALID,1.46055,
2009-08-24, 01:50:05,VALID,1000.35,VALID,0,VALID,82.4304,VALID,0,VALID,24.5599,VALID,128,VALID,1.33047,
2009-08-24, 01:51:05,VALID,1000.34,VALID,0,VALID,82.5372,VALID,0,VALID,24.5794,VALID,137,VALID,1.28594,
2009-08-24, 01:52:05,VALID,1000.34,VALID,0,VALID,82.7127,VALID,0,VALID,24.5813,VALID,155,VALID,1.14336,
2009-08-24, 01:53:05,VALID,1000.35,VALID,0,VALID,82.8119,VALID,0,VALID,24.5618,VALID,174,VALID,0.960547,
2009-08-24, 01:54:05,VALID,1000.32,VALID,0,VALID,82.7738,VALID,0,VALID,24.5422,VALID,174,VALID,0.871484,
2009-08-24, 01:55:05,VALID,1000.33,VALID,0,VALID,82.7814,VALID,0,VALID,24.5209,VALID,175,VALID,1.13516,
2009-08-24, 01:56:05,VALID,1000.35,VALID,0,VALID,82.6746,VALID,0,VALID,24.5209,VALID,160,VALID,1.18438,
2009-08-24, 01:57:05,VALID,1000.33,VALID,0,VALID,82.6746,VALID,0,VALID,24.5404,VALID,170,VALID,0.909766,
2009-08-24, 01:58:05,VALID,1000.33,VALID,0,VALID,82.5677,VALID,0,VALID,24.5404,VALID,168,VALID,1.31367,
2009-08-24, 01:59:05,VALID,1000.36,VALID,0,VALID,82.4075,VALID,0.112286,VALID,24.5385,VALID,179,VALID,0.838672,
2009-08-24, 02:00:05,VALID,1000.37,VALID,0,VALID,82.4915,VALID,0,VALID,24.5599,VALID,180,VALID,0.567578,
2009-08-24, 02:01:05,VALID,1000.35,VALID,0,VALID,82.4915,VALID,0,VALID,24.5385,VALID,180,VALID,0.504687,
2009-08-24, 02:02:05,VALID,1000.36,VALID,0,VALID,82.2778,VALID,0,VALID,24.519,VALID,157,VALID,0.831641,
2009-08-24, 02:03:05,VALID,1000.37,VALID,0,VALID,82.2015,VALID,0,VALID,24.558,VALID,168,VALID,0.932813,
2009-08-24, 02:04:05,VALID,1000.32,VALID,0,VALID,82.1252,VALID,0,VALID,24.5794,VALID,161,VALID,1.15977,
2009-08-24, 02:05:05,VALID,1000.32,VALID,0,VALID,81.8582,VALID,0,VALID,24.5775,VALID,158,VALID,0.919922,
2009-08-24, 02:06:05,VALID,1000.33,VALID,0,VALID,81.9498,VALID,0,VALID,24.5971,VALID,161,VALID,0.927734,
2009-08-24, 02:07:05,VALID,1000.31,VALID,0,VALID,81.9803,VALID,0,VALID,24.5971,VALID,162,VALID,1.13008,
2009-08-24, 02:08:05,VALID,1000.28,VALID,0,VALID,81.904,VALID,0,VALID,24.5971,VALID,156,VALID,1.19102,
2009-08-24, 02:09:05,VALID,1000.27,VALID,0,VALID,82.2931,VALID,0,VALID,24.5971,VALID,185,VALID,1.47617,
2009-08-24, 02:10:05,VALID,1000.28,VALID,0,VALID,82.4304,VALID,0,VALID,24.5775,VALID,159,VALID,1.48086,
2009-08-24, 02:11:05,VALID,1000.27,VALID,0,VALID,82.2626,VALID,0,VALID,24.558,VALID,172,VALID,1.20078,
2009-08-24, 02:12:05,VALID,1000.23,VALID,0,VALID,82.2702,VALID,0,VALID,24.5989,VALID,174,VALID,1.41992,
2009-08-24, 02:13:05,VALID,1000.24,VALID,0,VALID,82.3617,VALID,0,VALID,24.5775,VALID,165,VALID,1.62344,
2009-08-24, 02:14:05,VALID,1000.24,VALID,0,VALID,82.5372,VALID,0,VALID,24.5989,VALID,170,VALID,1.59297,
2009-08-24, 02:15:05,VALID,1000.25,VALID,0,VALID,82.728,VALID,0,VALID,24.5794,VALID,163,VALID,1.43789,
2009-08-24, 02:16:05,VALID,1000.23,VALID,0,VALID,82.6898,VALID,0,VALID,24.5599,VALID,162,VALID,1.64414,
2009-08-24, 02:17:05,VALID,1000.22,VALID,0,VALID,82.8806,VALID,0,VALID,24.558,VALID,163,VALID,1.28125,
2009-08-24, 02:18:05,VALID,1000.21,VALID,0,VALID,82.9798,VALID,0,VALID,24.5404,VALID,174,VALID,1.61641,
2009-08-24, 02:19:05,VALID,1000.2,VALID,0,VALID,82.9111,VALID,0,VALID,24.4995,VALID,164,VALID,2.12031,
2009-08-24, 02:20:05,VALID,1000.19,VALID,0,VALID,82.8958,VALID,0.112286,VALID,24.4995,VALID,167,VALID,1.9293,
2009-08-24, 02:21:05,VALID,1000.12,VALID,0,VALID,82.5449,VALID,0,VALID,24.519,VALID,171,VALID,1.62344,
2009-08-24, 02:22:05,VALID,1000.14,VALID,0,VALID,82.5906,VALID,0,VALID,24.5385,VALID,169,VALID,1.86758,
2009-08-24, 02:23:05,VALID,1000.11,VALID,0,VALID,82.2397,VALID,0.112286,VALID,24.5794,VALID,165,VALID,2.09492,
2009-08-24, 02:24:05,VALID,1000.12,VALID,0,VALID,82.1557,VALID,0,VALID,24.6184,VALID,168,VALID,1.70586,
2009-08-24, 02:25:05,VALID,1000.08,VALID,0,VALID,82.0184,VALID,0,VALID,24.6166,VALID,171,VALID,2.21953,
2009-08-24, 02:26:05,VALID,1000.07,VALID,0,VALID,81.9726,VALID,0,VALID,24.638,VALID,170,VALID,2.03711,
2009-08-24, 02:27:05,VALID,1000.06,VALID,0,VALID,82.1252,VALID,0,VALID,24.6594,VALID,170,VALID,1.88828,
2009-08-24, 02:28:05,VALID,1000.09,VALID,0,VALID,82.4609,VALID,0,VALID,24.6398,VALID,164,VALID,1.59102,
2009-08-24, 02:29:05,VALID,1000.04,VALID,0,VALID,82.5067,VALID,0,VALID,24.6008,VALID,160,VALID,1.88008,
2009-08-24, 02:30:05,VALID,1000.04,VALID,0,VALID,82.4762,VALID,0,VALID,24.5813,VALID,150,VALID,2.41602,
2009-08-24, 02:31:05,VALID,1000.03,VALID,0,VALID,82.5449,VALID,0,VALID,24.6008,VALID,144,VALID,1.86602,
2009-08-24, 02:32:05,VALID,1000.03,VALID,0,VALID,82.5983,VALID,0,VALID,24.5599,VALID,147,VALID,1.53633,
2009-08-24, 02:33:05,VALID,1000.02,VALID,0,VALID,82.5067,VALID,0,VALID,24.5618,VALID,149,VALID,1.81914,
2009-08-24, 02:34:05,VALID,999.998,VALID,0,VALID,82.728,VALID,0,VALID,24.5404,VALID,153,VALID,1.49531,
2009-08-24, 02:35:05,VALID,999.978,VALID,0,VALID,82.789,VALID,0,VALID,24.5422,VALID,153,VALID,1.41758,
2009-08-24, 02:36:05,VALID,1000.01,VALID,0,VALID,82.8806,VALID,0,VALID,24.5227,VALID,148,VALID,1.49375,
2009-08-24, 02:37:05,VALID,1000,VALID,0,VALID,82.8729,VALID,0,VALID,24.4818,VALID,159,VALID,1.53164,
2009-08-24, 02:38:05,VALID,1000,VALID,0,VALID,82.9035,VALID,0,VALID,24.4837,VALID,157,VALID,1.51094,
2009-08-24, 02:39:05,VALID,999.995,VALID,0,VALID,83.0332,VALID,0,VALID,24.4837,VALID,150,VALID,1.57969,
2009-08-24, 02:40:05,VALID,999.987,VALID,0,VALID,83.1781,VALID,0,VALID,24.4642,VALID,151,VALID,1.46211,
2009-08-24, 02:41:05,VALID,999.969,VALID,0,VALID,83.1857,VALID,0,VALID,24.4251,VALID,157,VALID,0.813281,
2009-08-24, 02:42:05,VALID,999.948,VALID,0,VALID,83.2849,VALID,0,VALID,24.4214,VALID,146,VALID,0.855859,
2009-08-24, 02:43:05,VALID,999.938,VALID,0,VALID,83.3307,VALID,0,VALID,24.4037,VALID,133,VALID,0.730859,
2009-08-24, 02:44:05,VALID,999.938,VALID,0,VALID,83.1171,VALID,0,VALID,24.3824,VALID,144,VALID,1.75937,
2009-08-24, 02:45:05,VALID,999.954,VALID,0,VALID,83.14,VALID,0,VALID,24.4233,VALID,144,VALID,1.98828,
2009-08-24, 02:46:05,VALID,999.929,VALID,0,VALID,83.1934,VALID,0,VALID,24.4019,VALID,150,VALID,1.1457,
2009-08-24, 02:47:05,VALID,999.925,VALID,0,VALID,83.0637,VALID,0,VALID,24.4037,VALID,141,VALID,1.83008,
2009-08-24, 02:48:05,VALID,999.923,VALID,0,VALID,82.8424,VALID,0,VALID,24.4019,VALID,145,VALID,1.83164,
2009-08-24, 02:49:05,VALID,999.906,VALID,0,VALID,82.6898,VALID,0,VALID,24.4428,VALID,144,VALID,1.5,
2009-08-24, 02:50:05,VALID,999.86,VALID,0,VALID,82.6288,VALID,0,VALID,24.4409,VALID,126,VALID,1.81914,
2009-08-24, 02:51:05,VALID,999.857,VALID,0,VALID,82.7051,VALID,0,VALID,24.4623,VALID,131,VALID,1.76523,
2009-08-24, 02:52:05,VALID,999.864,VALID,0,VALID,82.789,VALID,0,VALID,24.4428,VALID,133,VALID,1.6375,
2009-08-24, 02:53:05,VALID,999.808,VALID,0,VALID,82.85,VALID,0,VALID,24.4019,VALID,131,VALID,2.12773,
2009-08-24, 02:54:05,VALID,999.823,VALID,0,VALID,82.5601,VALID,0,VALID,24.4233,VALID,132,VALID,2.30234,
2009-08-24, 02:55:05,VALID,999.799,VALID,0,VALID,82.5525,VALID,0,VALID,24.4214,VALID,127,VALID,2.08984,
2009-08-24, 02:56:05,VALID,999.841,VALID,0,VALID,82.5601,VALID,0,VALID,24.4428,VALID,125,VALID,1.90898,
2009-08-24, 02:57:05,VALID,999.831,VALID,0,VALID,82.7966,VALID,0,VALID,24.4428,VALID,144,VALID,1.59375,
2009-08-24, 02:58:05,VALID,999.822,VALID,0,VALID,82.728,VALID,0,VALID,24.3824,VALID,140,VALID,2.03047,
2009-08-24, 02:59:05,VALID,999.842,VALID,0,VALID,82.6974,VALID,0,VALID,24.4037,VALID,136,VALID,1.68242,
2009-08-24, 03:00:05,VALID,999.839,VALID,0,VALID,82.4075,VALID,0,VALID,24.3824,VALID,133,VALID,1.86406,
2009-08-24, 03:01:05,VALID,999.852,VALID,0,VALID,82.5143,VALID,0,VALID,24.3824,VALID,138,VALID,1.92813,
2009-08-24, 03:02:05,VALID,999.851,VALID,0,VALID,82.6517,VALID,0,VALID,24.4037,VALID,133,VALID,2.02773,
2009-08-24, 03:03:05,VALID,999.84,VALID,0,VALID,82.3541,VALID,0,VALID,24.3824,VALID,128,VALID,2.54141,
2009-08-24, 03:04:05,VALID,999.872,VALID,0,VALID,82.6288,VALID,0,VALID,24.4037,VALID,138,VALID,1.64023,
2009-08-24, 03:05:04,VALID,999.869,VALID,0,VALID,82.4533,VALID,0,VALID,24.3824,VALID,136,VALID,2.06914,
2009-08-24, 03:06:04,VALID,999.885,VALID,0,VALID,82.2931,VALID,0,VALID,24.4233,VALID,154,VALID,1.61953,
2009-08-24, 03:07:04,VALID,999.871,VALID,0,VALID,82.0108,VALID,0,VALID,24.4623,VALID,139,VALID,2.07969,
2009-08-24, 03:08:04,VALID,999.884,VALID,0,VALID,81.5301,VALID,0,VALID,24.4623,VALID,138,VALID,2.45977,
2009-08-24, 03:09:04,VALID,999.887,VALID,0,VALID,81.5149,VALID,0,VALID,24.5013,VALID,139,VALID,2.17734,
2009-08-24, 03:10:04,VALID,999.878,VALID,0,VALID,81.5912,VALID,0,VALID,24.48,VALID,135,VALID,1.87852,
2009-08-24, 03:11:04,VALID,999.85,VALID,0,VALID,81.6217,VALID,0,VALID,24.5013,VALID,144,VALID,1.9,
2009-08-24, 03:12:04,VALID,999.88,VALID,0,VALID,81.5225,VALID,0,VALID,24.4604,VALID,140,VALID,1.76133,
2009-08-24, 03:13:04,VALID,999.844,VALID,0,VALID,81.4615,VALID,0,VALID,24.4409,VALID,137,VALID,1.91289,
2009-08-24, 03:14:04,VALID,999.892,VALID,0,VALID,81.5835,VALID,0,VALID,24.4818,VALID,150,VALID,1.55156,
2009-08-24, 03:15:04,VALID,999.871,VALID,0,VALID,81.2936,VALID,0,VALID,24.4214,VALID,135,VALID,1.80273,
2009-08-24, 03:16:04,VALID,999.861,VALID,0,VALID,81.5301,VALID,0.112286,VALID,24.4214,VALID,149,VALID,1.70117,
2009-08-24, 03:17:04,VALID,999.846,VALID,0,VALID,81.3699,VALID,0,VALID,24.4233,VALID,139,VALID,2.14609,
2009-08-24, 03:18:04,VALID,999.841,VALID,0,VALID,81.3317,VALID,0,VALID,24.4019,VALID,139,VALID,1.81523,
2009-08-24, 03:19:04,VALID,999.886,VALID,0,VALID,81.1868,VALID,0,VALID,24.4233,VALID,144,VALID,1.74219,
2009-08-24, 03:20:04,VALID,999.889,VALID,0,VALID,81.2707,VALID,0,VALID,24.4019,VALID,159,VALID,1.49961,
2009-08-24, 03:21:04,VALID,999.876,VALID,0,VALID,81.3852,VALID,0,VALID,24.4037,VALID,159,VALID,1.54688,
2009-08-24, 03:22:04,VALID,999.905,VALID,0,VALID,81.2326,VALID,0,VALID,24.4037,VALID,153,VALID,1.16094,
2009-08-24, 03:23:04,VALID,999.925,VALID,0,VALID,81.3623,VALID,0,VALID,24.3824,VALID,165,VALID,1.76523,
2009-08-24, 03:24:04,VALID,999.926,VALID,0,VALID,80.9045,VALID,0,VALID,24.3629,VALID,160,VALID,1.85664,
2009-08-24, 03:25:04,VALID,999.929,VALID,0,VALID,80.7138,VALID,0,VALID,24.4233,VALID,145,VALID,1.59414,
2009-08-24, 03:26:04,VALID,999.954,VALID,0,VALID,80.5612,VALID,0.112286,VALID,24.4019,VALID,151,VALID,1.42266,
2009-08-24, 03:27:04,VALID,999.968,VALID,0,VALID,80.5764,VALID,0,VALID,24.4233,VALID,160,VALID,1.57461,
2009-08-24, 03:28:04,VALID,999.955,VALID,0,VALID,80.7672,VALID,0,VALID,24.4233,VALID,168,VALID,1.49688,
2009-08-24, 03:29:04,VALID,999.98,VALID,0,VALID,80.8892,VALID,0,VALID,24.4446,VALID,180,VALID,1.40703,
2009-08-24, 03:30:04,VALID,999.995,VALID,0,VALID,80.6451,VALID,0,VALID,24.4233,VALID,175,VALID,1.56211,
2009-08-24, 03:31:04,VALID,999.974,VALID,0,VALID,80.5154,VALID,0,VALID,24.4428,VALID,177,VALID,1.80078,
2009-08-24, 03:32:04,VALID,999.997,VALID,0,VALID,80.4162,VALID,0,VALID,24.5013,VALID,179,VALID,1.74727,
2009-08-24, 03:33:04,VALID,999.979,VALID,0,VALID,80.5383,VALID,0,VALID,24.5013,VALID,164,VALID,1.14766,
2009-08-24, 03:34:04,VALID,999.994,VALID,0,VALID,80.5917,VALID,0,VALID,24.4428,VALID,175,VALID,1.9043,
2009-08-24, 03:35:04,VALID,1000,VALID,0,VALID,81.0723,VALID,0,VALID,24.4037,VALID,166,VALID,1.13555,
2009-08-24, 03:36:04,VALID,999.985,VALID,0,VALID,81.1792,VALID,0,VALID,24.3452,VALID,178,VALID,1.57109,
2009-08-24, 03:37:04,VALID,999.987,VALID,0,VALID,81.5301,VALID,0,VALID,24.3257,VALID,165,VALID,1.24102,
2009-08-24, 03:38:04,VALID,999.992,VALID,0,VALID,81.5378,VALID,0,VALID,24.2866,VALID,176,VALID,1.55703,
2009-08-24, 03:39:04,VALID,999.989,VALID,0,VALID,81.3852,VALID,0,VALID,24.2671,VALID,156,VALID,1.81055,
2009-08-24, 03:40:04,VALID,1000.02,VALID,0,VALID,80.8053,VALID,0,VALID,24.2866,VALID,152,VALID,1.37344,
2009-08-24, 03:41:04,VALID,1000.01,VALID,0,VALID,80.8511,VALID,0,VALID,24.3062,VALID,180,VALID,1.16055,
2009-08-24, 03:42:04,VALID,1000.04,VALID,0,VALID,81.0342,VALID,0,VALID,24.3062,VALID,175,VALID,1.06641,
2009-08-24, 03:43:04,VALID,1000.07,VALID,0,VALID,81.1181,VALID,0,VALID,24.2866,VALID,189,VALID,1.25,
2009-08-24, 03:44:04,VALID,1000.06,VALID,0,VALID,81.202,VALID,0,VALID,24.2866,VALID,193,VALID,1.4793,
2009-08-24, 03:45:04,VALID,1000.11,VALID,0,VALID,80.9045,VALID,0,VALID,24.308,VALID,182,VALID,1.29375,